Powrót do katalogu

STARLINK-35379

AktywnyŁącznośćVLEO
NORAD 66084·PAYLOAD·🇺🇸 United States

Wystrzelony Oct 19, 2025 z Cape Canaveral Space Force Station

Loading…

Następne Przeloty (najbliższe 24 godziny)

TLE

ŚwieżeSource: CelesTrak SupGP

Epoka: Sep 14, 2026, 21:35 UTC

1 66084C 25235AC  26257.89979167 -.00005269  00000+0 -15572-3 0  2572
2 66084  53.1592  85.8517 0001204  81.9321  81.6249 15.34384557    12

Śledź STARLINK-35379 w czasie rzeczywistym z AllMySat

Download on the App Store